STARLINK-4666 (53789 NORAD) Tracking and Keplerian Element Data

This shows tracking and keplerian element data for the satellite.

Feedback or suggestion? Click here.




ElementValue
Catalog53789
NameSTARLINK-4666
Epoch Orbit1105
Epoch Day325.25001157
Epoch Year2022
RAAN280.8375
Inclination53.2166
Eccentricity0.0001807
Argument of Perigee45.0676
Mean Anonmoly175.3624
Mean Motion15.11589101
Decay Rate-0.0116551
L11 53789U 22111S 22325.25001157 -.01165510 00000+0 -73814-1 0 9998
L22 53789 53.2166 280.8375 0001807 45.0676 175.3624 15.11589101 11051



Live tracking and technical data element details for STARLINK-4666 (NORAD 53789). STARLINK-4666 can be tracked NOW for your location showing map with azimuth and elevation plus other details from your city location.







IsCatalogInMostPopularTable: catalog: 53789, numindb: -1

Insert: records affected: 1


GetName: 53789 STARLINK-4666

Hit Count: inserted at: Thu, 08 Dec 2022 09:40:56 GMT